Starlink 5067

operational
NORAD ID: 55653 Int'l Des: 2023-021 Owner: SPXS Country: US Constellation: starlink
LEOCIRCULAR

About Starlink 5067

Description loading...

Live Position

Loading 3D Globe...

Upcoming Passes

Altitude History

Altitude vs Time

uPlot chart will show altitude changes over time

Two-Line Element Set

1 55653U 23021AB 25307.96818328 .00000889 00000-0 82303-4 0 9999
2 55653 69.9983 141.2795 0002998 269.3386 90.7429 14.98332715149967
Epoch: Nov 3, 2025 • Age: 13 hours

Current Status

Altitude 575.8 km
Velocity 7.57 km/s
Sub-Earth Point 26.84°N, 76.24°W
Launch Date Feb 17, 2023
Age 2.7 years
Type internet

Technical Details

Classification Payload
Mass 305.00 kg
Dry Mass 290.00 kg
Total Mass 305.00 kg
Length 0.20 m
Diameter 2.80 m
Span 9.00 m
Shape Box + pan
Manufacturer SPXS
Bus Type Starlink
Phase Status In Orbit
Owner/State SPXS/US

Large Constellations

Loading constellations...